Location: Huntsville
(34.7300°N, 86.5860°W)
Time: 15:08:51
(UTC-05:00)

Tiangong - Visible Passes

Search period start: 01 October 2023 00:00
Search period end: 11 October 2023 00:00
Orbit: 372 x 384 km, 41.5° (Epoch: 01 October)

Date Brightness Start Highest point End Pass type
(mag) Time Alt. Az. Time Alt. Az. Time Alt. Az.
01 Oct -0.7 19:41:32 10° W 19:44:24 32° NNW 19:45:45 22° NNE visible
02 Oct 0.1 20:16:56 10° WNW 20:18:52 21° NNW 20:18:52 21° NNW visible
03 Oct -0.4 19:14:38 10° WNW 19:17:20 26° N 19:19:48 11° NE visible
04 Oct -0.4 19:49:45 10° NW 19:52:19 22° N 19:52:40 22° NNE visible
05 Oct 0.5 20:24:21 10° NW 20:25:27 18° NW 20:25:27 18° NW visible
06 Oct -0.5 19:22:07 10° NW 19:24:45 24° N 19:26:07 18° NE visible
07 Oct -1.0 19:56:22 10° NW 19:58:46 35° NNW 19:58:46 35° NNW visible
08 Oct -0.8 18:54:02 10° NW 18:56:49 28° NNE 18:59:20 11° ENE visible
08 Oct 0.8 20:30:32 10° WNW 20:31:22 17° WNW 20:31:22 17° WNW visible
09 Oct -2.0 19:28:03 10° WNW 19:31:09 59° NNE 19:31:56 41° E visible
10 Oct -0.7 20:02:11 10° WNW 20:04:33 35° WSW 20:04:33 35° WSW visible
